Location: Pasarilla del Rebollar
(40.6790°N, 5.0062°W)
Time: 10:48:23
(UTC+00:00)

Cosmos 1833 - Pass Details

Date: 22 April 2026
Orbit: 833 x 865 km, 70.9° (Epoch: 15 May)

Event Time Altitude Azimuth Distance (km) Brightness Sun altitude
Exits shadow 02:53:56 62° 165° (SSE) 957 4.2 -26.1°
Maximum altitude 02:54:46 73° 111° (ESE) 893 4.3 -26.0°
Drops below altitude 10° 03:00:26 10° 28° (NNE) 2,476 7.6 -25.3°
Sets 03:02:53 0° 26° (NNE) 3,410 8.5 -24.9°
